User: anonymous   Login
Location: Nitra
(48.3167°N, 18.0833°E)
Time: 08:39:17
(UTC+01:00)
Language:

STARLINK-1575 - Orbit

View from above orbital plane
View from above orbital plane
View from above satellite
View from above satellite

Ground track
Ground track

The orbit data is extracted from the following two-line orbital elements,

1 46349C 20062AB  20337.11997898 -.00005464  00000-0 -59551-4 0  3379
2 46349  52.9978 350.4871 0002384  14.6820  20.4735 15.62756075    10
Epoch (UTC): 02 December 2020 02:52:46
Eccentricity: 0.0002384
inclination: 52.9978°
perigee height: 378 km
apogee height: 381 km
right ascension of ascending node: 350.4871°
argument of perigee: 14.6820°
revolutions per day: 15.62756075
mean anomaly at epoch: 20.4735°
orbit number at epoch: 1

The dashed part of the orbit path shows where the satellite is in the earth's shadow,  

DLR